Year,Month,Day,Hour,Minute,Value (Times are PST for temperature in C)
2009,11,13,00,00,4.10
2009,11,13,00,01,4.10
2009,11,13,00,02,4.10
2009,11,13,00,03,4.10
2009,11,13,00,04,4.10
2009,11,13,00,05,4.10
2009,11,13,00,06,4.10
2009,11,13,00,07,4.10
2009,11,13,00,08,4.10
2009,11,13,00,09,4.10
2009,11,13,00,10,4.10
2009,11,13,00,11,4.10
2009,11,13,00,12,4.10
2009,11,13,00,13,4.10
2009,11,13,00,14,4.10
2009,11,13,00,15,4.10
2009,11,13,00,16,4.10
2009,11,13,00,17,4.10
2009,11,13,00,18,4.10
2009,11,13,00,19,4.10
2009,11,13,00,20,4.20
2009,11,13,00,21,4.20
2009,11,13,00,22,4.20
2009,11,13,00,23,4.20
2009,11,13,00,24,4.20
2009,11,13,00,25,4.20
2009,11,13,00,26,4.20
2009,11,13,00,27,4.20
2009,11,13,00,28,4.20
2009,11,13,00,29,4.30
2009,11,13,00,30,4.30
2009,11,13,00,31,4.30
2009,11,13,00,32,4.30
2009,11,13,00,33,4.40
2009,11,13,00,34,4.40
2009,11,13,00,35,4.40
2009,11,13,00,36,4.40
2009,11,13,00,37,4.50
2009,11,13,00,38,4.50
2009,11,13,00,39,4.50
2009,11,13,00,40,4.50
2009,11,13,00,41,4.50
2009,11,13,00,42,4.60
2009,11,13,00,43,4.60
2009,11,13,00,44,4.60
2009,11,13,00,45,4.60
2009,11,13,00,46,4.60
2009,11,13,00,47,4.60
2009,11,13,00,48,4.60
2009,11,13,00,49,4.60
2009,11,13,00,50,4.60
2009,11,13,00,51,4.60
2009,11,13,00,52,4.90
2009,11,13,00,53,4.90
2009,11,13,00,54,5.10
2009,11,13,00,55,5.10
2009,11,13,00,56,5.10
2009,11,13,00,57,5.10
2009,11,13,00,58,5.20
2009,11,13,00,59,5.20
2009,11,13,01,00,5.30
2009,11,13,01,01,5.30
2009,11,13,01,02,5.40
2009,11,13,01,03,5.40
2009,11,13,01,04,5.50
2009,11,13,01,05,5.50
2009,11,13,01,06,5.50
2009,11,13,01,07,5.60
2009,11,13,01,08,5.60
2009,11,13,01,09,5.60
2009,11,13,01,10,5.70
2009,11,13,01,11,5.70
2009,11,13,01,12,5.70
2009,11,13,01,13,5.70
2009,11,13,01,14,5.70
2009,11,13,01,15,5.70
2009,11,13,01,16,5.80
2009,11,13,01,17,5.80
2009,11,13,01,18,5.80
2009,11,13,01,19,5.90
2009,11,13,01,20,5.90
2009,11,13,01,21,5.90
2009,11,13,01,22,5.90
2009,11,13,01,23,5.90
2009,11,13,01,24,5.90
2009,11,13,01,25,5.90
2009,11,13,01,26,6.00
2009,11,13,01,27,6.00
2009,11,13,01,28,6.00
2009,11,13,01,29,6.00
2009,11,13,01,30,6.00
2009,11,13,01,31,6.00
2009,11,13,01,32,6.00
2009,11,13,01,33,6.00
2009,11,13,01,34,6.00
2009,11,13,01,35,6.00
2009,11,13,01,36,6.00
2009,11,13,01,37,6.00
2009,11,13,01,38,6.00
2009,11,13,01,39,6.00
2009,11,13,01,40,6.00
2009,11,13,01,41,6.00
2009,11,13,01,42,6.00
2009,11,13,01,43,5.90
2009,11,13,01,44,5.90
2009,11,13,01,45,5.90
2009,11,13,01,46,5.90
2009,11,13,01,47,5.90
2009,11,13,01,48,5.90
2009,11,13,01,49,5.90
2009,11,13,01,50,5.90
2009,11,13,01,51,5.90
2009,11,13,01,52,5.90
2009,11,13,01,53,5.90
2009,11,13,01,54,6.00
2009,11,13,01,55,6.00
2009,11,13,01,56,6.00
2009,11,13,01,57,6.00
2009,11,13,01,58,6.00
2009,11,13,01,59,6.00
2009,11,13,02,00,6.00
2009,11,13,02,01,6.00
2009,11,13,02,02,6.00
2009,11,13,02,03,6.00
2009,11,13,02,04,6.00
2009,11,13,02,05,6.00
2009,11,13,02,06,6.00
2009,11,13,02,07,6.00
2009,11,13,02,08,5.90
2009,11,13,02,09,5.90
2009,11,13,02,10,5.90
2009,11,13,02,11,5.80
2009,11,13,02,12,5.80
2009,11,13,02,13,5.80
2009,11,13,02,14,5.70
2009,11,13,02,15,5.70
2009,11,13,02,16,5.70
2009,11,13,02,17,5.70
2009,11,13,02,18,5.70
2009,11,13,02,19,5.60
2009,11,13,02,20,5.60
2009,11,13,02,21,5.50
2009,11,13,02,22,5.50
2009,11,13,02,23,5.50
2009,11,13,02,24,5.40
2009,11,13,02,25,5.40
2009,11,13,02,26,5.40
2009,11,13,02,27,5.40
2009,11,13,02,28,5.40
2009,11,13,02,29,5.30
2009,11,13,02,30,5.30
2009,11,13,02,31,5.30
2009,11,13,02,32,5.30
2009,11,13,02,33,5.30
2009,11,13,02,34,5.30
2009,11,13,02,35,5.30
2009,11,13,02,36,5.30
2009,11,13,02,37,5.30
2009,11,13,02,38,5.30
2009,11,13,02,39,5.30
2009,11,13,02,40,5.30
2009,11,13,02,41,5.30
2009,11,13,02,42,5.30
2009,11,13,02,43,5.30
2009,11,13,02,44,5.30
2009,11,13,02,45,5.30
2009,11,13,02,46,5.30
2009,11,13,02,47,5.30
2009,11,13,02,48,5.30
2009,11,13,02,49,5.30
2009,11,13,02,50,5.30
2009,11,13,02,51,5.30
2009,11,13,02,52,5.30
2009,11,13,02,53,5.30
2009,11,13,02,54,5.30
2009,11,13,02,55,5.30
2009,11,13,02,56,5.30
2009,11,13,02,57,5.30
2009,11,13,02,58,5.30
2009,11,13,02,59,5.30
2009,11,13,03,00,5.30
2009,11,13,03,01,5.30
2009,11,13,03,02,5.30
2009,11,13,03,03,5.30
2009,11,13,03,04,5.30
2009,11,13,03,05,5.30
2009,11,13,03,06,5.20
2009,11,13,03,07,5.20
2009,11,13,03,08,5.20
2009,11,13,03,09,5.20
2009,11,13,03,10,5.10
2009,11,13,03,11,5.10
2009,11,13,03,12,5.10
2009,11,13,03,13,5.10
2009,11,13,03,14,5.10
2009,11,13,03,15,5.10
2009,11,13,03,16,5.10
2009,11,13,03,17,5.10
2009,11,13,03,18,5.10
2009,11,13,03,19,5.10
2009,11,13,03,20,5.10
2009,11,13,03,21,5.10
2009,11,13,03,22,5.10
2009,11,13,03,23,5.10
2009,11,13,03,24,5.10
2009,11,13,03,25,5.10
2009,11,13,03,26,5.10
2009,11,13,03,27,5.10
2009,11,13,03,28,5.10
2009,11,13,03,29,5.10
2009,11,13,03,30,5.10
2009,11,13,03,31,5.10
2009,11,13,03,32,5.10
2009,11,13,03,33,5.10
2009,11,13,03,34,5.10
2009,11,13,03,35,5.10
2009,11,13,03,36,5.10
2009,11,13,03,37,5.10
2009,11,13,03,38,5.10
2009,11,13,03,39,5.10
2009,11,13,03,40,5.10
2009,11,13,03,41,5.10
2009,11,13,03,42,5.10
2009,11,13,03,43,5.10
2009,11,13,03,44,5.10
2009,11,13,03,45,5.10
2009,11,13,03,46,5.10
2009,11,13,03,47,5.10
2009,11,13,03,48,5.10
2009,11,13,03,49,5.10
2009,11,13,03,50,5.10
2009,11,13,03,51,5.10
2009,11,13,03,52,5.10
2009,11,13,03,53,5.10
2009,11,13,03,54,5.10
2009,11,13,03,55,5.10
2009,11,13,03,56,5.10
2009,11,13,03,57,5.10
2009,11,13,03,58,5.10
2009,11,13,03,59,5.10
2009,11,13,04,00,5.10
2009,11,13,04,01,5.10
2009,11,13,04,02,5.10
2009,11,13,04,03,5.00
2009,11,13,04,04,4.90
2009,11,13,04,05,4.90
2009,11,13,04,06,4.90
2009,11,13,04,07,4.90
2009,11,13,04,08,4.90
2009,11,13,04,09,4.90
2009,11,13,04,10,4.90
2009,11,13,04,11,4.90
2009,11,13,04,12,4.90
2009,11,13,04,13,4.90
2009,11,13,04,14,4.90
2009,11,13,04,15,4.90
2009,11,13,04,16,4.90
2009,11,13,04,17,4.90
2009,11,13,04,18,4.90
2009,11,13,04,19,4.90
2009,11,13,04,20,4.90
2009,11,13,04,21,4.90
2009,11,13,04,22,4.90
2009,11,13,04,23,4.90
2009,11,13,04,24,4.90
2009,11,13,04,25,4.90
2009,11,13,04,26,4.90
2009,11,13,04,27,4.90
2009,11,13,04,28,4.90
2009,11,13,04,29,4.90
2009,11,13,04,30,4.90
2009,11,13,04,31,4.90
2009,11,13,04,32,4.90
2009,11,13,04,33,4.90
2009,11,13,04,34,4.90
2009,11,13,04,35,4.90
2009,11,13,04,36,4.90
2009,11,13,04,37,4.90
2009,11,13,04,38,4.90
2009,11,13,04,39,4.90
2009,11,13,04,40,4.90
2009,11,13,04,41,4.90
2009,11,13,04,42,4.90
2009,11,13,04,43,4.90
2009,11,13,04,44,4.80
2009,11,13,04,45,4.80
2009,11,13,04,46,4.80
2009,11,13,04,47,4.80
2009,11,13,04,48,4.80
2009,11,13,04,49,4.80
2009,11,13,04,50,4.70
2009,11,13,04,51,4.70
2009,11,13,04,52,4.70
2009,11,13,04,53,4.60
2009,11,13,04,54,4.60
2009,11,13,04,55,4.60
2009,11,13,04,56,4.60
2009,11,13,04,57,4.60
2009,11,13,04,58,4.60
2009,11,13,04,59,4.60
2009,11,13,05,00,4.60
2009,11,13,05,01,4.60
2009,11,13,05,02,4.60
2009,11,13,05,03,4.60
2009,11,13,05,04,4.60
2009,11,13,05,05,4.60
2009,11,13,05,06,4.60
2009,11,13,05,07,4.60
2009,11,13,05,08,4.60
2009,11,13,05,09,4.60
2009,11,13,05,10,4.60
2009,11,13,05,11,4.60
2009,11,13,05,12,4.60
2009,11,13,05,13,4.60
2009,11,13,05,14,4.60
2009,11,13,05,15,4.60
2009,11,13,05,16,4.60
2009,11,13,05,17,4.60
2009,11,13,05,18,4.60
2009,11,13,05,19,4.60
2009,11,13,05,20,4.60
2009,11,13,05,21,4.50
2009,11,13,05,22,4.50
2009,11,13,05,23,4.50
2009,11,13,05,24,4.40
2009,11,13,05,25,4.40
2009,11,13,05,26,4.40
2009,11,13,05,27,4.40
2009,11,13,05,28,4.30
2009,11,13,05,29,4.30
2009,11,13,05,30,4.30
2009,11,13,05,31,4.30
2009,11,13,05,32,4.30
2009,11,13,05,33,4.30
2009,11,13,05,34,4.30
2009,11,13,05,35,4.30
2009,11,13,05,36,4.30
2009,11,13,05,37,4.30
2009,11,13,05,38,4.30
2009,11,13,05,39,4.30
2009,11,13,05,40,4.30
2009,11,13,05,41,4.30
2009,11,13,05,42,4.30
2009,11,13,05,43,4.30
2009,11,13,05,44,4.30
2009,11,13,05,45,4.30
2009,11,13,05,46,4.30
2009,11,13,05,47,4.40
2009,11,13,05,48,4.40
2009,11,13,05,49,4.40
2009,11,13,05,50,4.40
2009,11,13,05,51,4.40
2009,11,13,05,52,4.40
2009,11,13,05,53,4.40
2009,11,13,05,54,4.40
2009,11,13,05,55,4.40
2009,11,13,05,56,4.40
2009,11,13,05,57,4.40
2009,11,13,05,58,4.40
2009,11,13,05,59,4.40
2009,11,13,06,00,4.40
2009,11,13,06,01,4.40
2009,11,13,06,02,4.40
2009,11,13,06,03,4.40
2009,11,13,06,04,4.50
2009,11,13,06,05,4.50
2009,11,13,06,06,4.50
2009,11,13,06,07,4.50
2009,11,13,06,08,4.50
2009,11,13,06,09,4.50
2009,11,13,06,10,4.50
2009,11,13,06,11,4.50
2009,11,13,06,12,4.50
2009,11,13,06,13,4.50
2009,11,13,06,14,4.50
2009,11,13,06,15,4.50
2009,11,13,06,16,4.50
2009,11,13,06,17,4.50
2009,11,13,06,18,4.50
2009,11,13,06,19,4.50
2009,11,13,06,20,4.50
2009,11,13,06,21,4.60
2009,11,13,06,22,4.60
2009,11,13,06,23,4.60
2009,11,13,06,24,4.80
2009,11,13,06,25,4.80
2009,11,13,06,26,5.00
2009,11,13,06,27,5.30
2009,11,13,06,28,5.40
2009,11,13,06,29,5.60
2009,11,13,06,30,5.70
2009,11,13,06,31,5.80
2009,11,13,06,32,5.90
2009,11,13,06,33,5.90
2009,11,13,06,34,6.00
2009,11,13,06,35,6.10
2009,11,13,06,36,6.20
2009,11,13,06,37,6.20
2009,11,13,06,38,6.20
2009,11,13,06,39,6.20
2009,11,13,06,40,6.30
2009,11,13,06,41,6.30
2009,11,13,06,42,6.30
2009,11,13,06,43,6.20
2009,11,13,06,44,6.20
2009,11,13,06,45,6.20
2009,11,13,06,46,6.30
2009,11,13,06,47,6.30
2009,11,13,06,48,6.30
2009,11,13,06,49,6.30
2009,11,13,06,50,6.30
2009,11,13,06,51,6.30
2009,11,13,06,52,6.30
2009,11,13,06,53,6.30
2009,11,13,06,54,6.20
2009,11,13,06,55,6.20
2009,11,13,06,56,6.20
2009,11,13,06,57,6.20
2009,11,13,06,58,6.20
2009,11,13,06,59,6.20
2009,11,13,07,00,6.20
2009,11,13,07,01,6.20
2009,11,13,07,02,6.20
2009,11,13,07,03,6.20
2009,11,13,07,04,6.10
2009,11,13,07,05,6.10
2009,11,13,07,06,6.10
2009,11,13,07,07,6.10
2009,11,13,07,08,6.10
2009,11,13,07,09,6.10
2009,11,13,07,10,6.10
2009,11,13,07,11,6.10
2009,11,13,07,12,6.10
2009,11,13,07,13,6.10
2009,11,13,07,14,6.10
2009,11,13,07,15,6.10
2009,11,13,07,16,6.20
2009,11,13,07,17,6.20
2009,11,13,07,18,6.20
2009,11,13,07,19,6.20
2009,11,13,07,20,6.20
2009,11,13,07,21,6.30
2009,11,13,07,22,6.30
2009,11,13,07,23,6.20
2009,11,13,07,24,6.20
2009,11,13,07,25,6.20
2009,11,13,07,26,6.20
2009,11,13,07,27,6.20
2009,11,13,07,28,6.20
2009,11,13,07,29,6.20
2009,11,13,07,30,6.20
2009,11,13,07,31,6.20
2009,11,13,07,32,6.20
2009,11,13,07,33,6.20
2009,11,13,07,34,6.30
2009,11,13,07,35,6.20
2009,11,13,07,36,6.30
2009,11,13,07,37,6.30
2009,11,13,07,38,6.30
2009,11,13,07,39,6.30
2009,11,13,07,40,6.30
2009,11,13,07,41,6.40
2009,11,13,07,42,6.40
2009,11,13,07,43,6.40
2009,11,13,07,44,6.40
2009,11,13,07,45,6.50
2009,11,13,07,46,6.60
2009,11,13,07,47,6.60
2009,11,13,07,48,6.60
2009,11,13,07,49,6.60
2009,11,13,07,50,6.60
2009,11,13,07,51,6.60
2009,11,13,07,52,6.60
2009,11,13,07,53,6.60
2009,11,13,07,54,6.60
2009,11,13,07,55,6.60
2009,11,13,07,56,6.60
2009,11,13,07,57,6.60
2009,11,13,07,58,6.60
2009,11,13,07,59,6.70
2009,11,13,08,00,6.70
2009,11,13,08,01,6.60
2009,11,13,08,02,6.60
2009,11,13,08,03,6.60
2009,11,13,08,04,6.60
2009,11,13,08,05,6.60
2009,11,13,08,06,6.60
2009,11,13,08,07,6.60
2009,11,13,08,08,6.70
2009,11,13,08,09,6.70
2009,11,13,08,10,6.70
2009,11,13,08,11,6.70
2009,11,13,08,12,6.70
2009,11,13,08,13,6.70
2009,11,13,08,14,6.70
2009,11,13,08,15,6.80
2009,11,13,08,16,6.80
2009,11,13,08,17,6.80
2009,11,13,08,18,6.80
2009,11,13,08,19,6.80
2009,11,13,08,20,6.90
2009,11,13,08,21,6.90
2009,11,13,08,22,7.00
2009,11,13,08,23,7.00
2009,11,13,08,24,7.00
2009,11,13,08,25,7.00
2009,11,13,08,26,7.00
2009,11,13,08,27,7.00
2009,11,13,08,28,7.10
2009,11,13,08,29,7.10
2009,11,13,08,30,7.10
2009,11,13,08,31,7.00
2009,11,13,08,32,7.00
2009,11,13,08,33,6.90
2009,11,13,08,34,6.80
2009,11,13,08,35,6.70
2009,11,13,08,36,6.70
2009,11,13,08,37,6.60
2009,11,13,08,38,6.60
2009,11,13,08,39,6.60
2009,11,13,08,40,6.60
2009,11,13,08,41,6.50
2009,11,13,08,42,6.60
2009,11,13,08,43,6.60
2009,11,13,08,44,6.60
2009,11,13,08,45,6.60
2009,11,13,08,46,6.60
2009,11,13,08,47,6.60
2009,11,13,08,48,6.60
2009,11,13,08,49,6.60
2009,11,13,08,50,6.60
2009,11,13,08,51,6.70
2009,11,13,08,52,6.70
2009,11,13,08,53,6.80
2009,11,13,08,54,6.80
2009,11,13,08,55,6.80
2009,11,13,08,56,6.80
2009,11,13,08,57,6.80
2009,11,13,08,58,6.80
2009,11,13,08,59,6.80
2009,11,13,09,00,6.80
2009,11,13,09,01,6.80
2009,11,13,09,02,6.80
2009,11,13,09,03,6.80
2009,11,13,09,04,6.80
2009,11,13,09,05,6.80
2009,11,13,09,06,6.80
2009,11,13,09,07,6.80
2009,11,13,09,08,6.80
2009,11,13,09,09,6.80
2009,11,13,09,10,6.80
2009,11,13,09,11,6.80
2009,11,13,09,12,6.80
2009,11,13,09,13,6.90
2009,11,13,09,14,6.90
2009,11,13,09,15,6.90
2009,11,13,09,16,7.00
2009,11,13,09,17,7.00
2009,11,13,09,18,7.00
2009,11,13,09,19,7.10
2009,11,13,09,20,7.10
2009,11,13,09,21,7.10
2009,11,13,09,22,7.20
2009,11,13,09,23,7.20
2009,11,13,09,24,7.30
2009,11,13,09,25,7.30
2009,11,13,09,26,7.30
2009,11,13,09,27,7.40
2009,11,13,09,28,7.40
2009,11,13,09,29,7.40
2009,11,13,09,30,7.40
2009,11,13,09,31,7.40
2009,11,13,09,32,7.40
2009,11,13,09,33,7.30
2009,11,13,09,34,7.30
2009,11,13,09,35,7.30
2009,11,13,09,36,7.30
2009,11,13,09,37,7.30
2009,11,13,09,38,7.30
2009,11,13,09,39,7.30
2009,11,13,09,40,7.30
2009,11,13,09,41,7.30
2009,11,13,09,42,7.30
2009,11,13,09,43,7.20
2009,11,13,09,44,7.20
2009,11,13,09,45,7.20
2009,11,13,09,46,7.20
2009,11,13,09,47,7.20
2009,11,13,09,48,7.20
2009,11,13,09,49,7.20
2009,11,13,09,50,7.20
2009,11,13,09,51,7.20
2009,11,13,09,52,7.20
2009,11,13,09,53,7.10
2009,11,13,09,54,7.10
2009,11,13,09,55,7.10
2009,11,13,09,56,7.10
2009,11,13,09,57,7.00
2009,11,13,09,58,7.00
2009,11,13,09,59,7.00
2009,11,13,10,00,7.10
2009,11,13,10,01,7.10
2009,11,13,10,02,7.10
2009,11,13,10,03,7.20
2009,11,13,10,04,7.20
2009,11,13,10,05,7.10
2009,11,13,10,06,7.10
2009,11,13,10,07,7.10
2009,11,13,10,08,7.10
2009,11,13,10,09,7.10
2009,11,13,10,10,7.10
2009,11,13,10,11,7.00
2009,11,13,10,12,7.00
2009,11,13,10,13,7.00
2009,11,13,10,14,7.00
2009,11,13,10,15,7.00
2009,11,13,10,16,7.00
2009,11,13,10,17,7.00
2009,11,13,10,18,7.00
2009,11,13,10,19,7.00
2009,11,13,10,20,7.00
2009,11,13,10,21,7.00
2009,11,13,10,22,7.00
2009,11,13,10,23,7.00
2009,11,13,10,24,7.10
2009,11,13,10,25,7.10
2009,11,13,10,26,7.10
2009,11,13,10,27,7.20
2009,11,13,10,28,7.20
2009,11,13,10,29,7.20
2009,11,13,10,30,7.30
2009,11,13,10,31,7.30
2009,11,13,10,32,7.30
2009,11,13,10,33,7.30
2009,11,13,10,34,7.30
2009,11,13,10,35,7.30
2009,11,13,10,36,7.30
2009,11,13,10,37,7.30
2009,11,13,10,38,7.30
2009,11,13,10,39,7.30
2009,11,13,10,40,7.30
2009,11,13,10,41,7.30
2009,11,13,10,42,7.30
2009,11,13,10,43,7.30
2009,11,13,10,44,7.30
2009,11,13,10,45,7.30
2009,11,13,10,46,7.30
2009,11,13,10,47,7.30
2009,11,13,10,48,7.30
2009,11,13,10,49,7.40
2009,11,13,10,50,7.40
2009,11,13,10,51,7.40
2009,11,13,10,52,7.40
2009,11,13,10,53,7.40
2009,11,13,10,54,7.40
2009,11,13,10,55,7.50
2009,11,13,10,56,7.50
2009,11,13,10,57,7.50
2009,11,13,10,58,7.60
2009,11,13,10,59,7.60
2009,11,13,11,00,7.60
2009,11,13,11,01,7.60
2009,11,13,11,02,7.70
2009,11,13,11,03,7.70
2009,11,13,11,04,7.70
2009,11,13,11,05,7.70
2009,11,13,11,06,7.70
2009,11,13,11,07,7.80
2009,11,13,11,08,7.80
2009,11,13,11,09,7.80
2009,11,13,11,10,7.80
2009,11,13,11,11,7.80
2009,11,13,11,12,7.80
2009,11,13,11,13,7.80
2009,11,13,11,14,7.80
2009,11,13,11,15,7.80
2009,11,13,11,16,7.80
2009,11,13,11,17,7.90
2009,11,13,11,18,7.90
2009,11,13,11,19,7.90
2009,11,13,11,20,7.90
2009,11,13,11,21,7.90
2009,11,13,11,22,8.00
2009,11,13,11,23,8.00
2009,11,13,11,24,8.00
2009,11,13,11,25,8.00
2009,11,13,11,26,8.00
2009,11,13,11,27,8.00
2009,11,13,11,28,8.00
2009,11,13,11,29,8.00
2009,11,13,11,30,8.00
2009,11,13,11,31,8.00
2009,11,13,11,32,8.10
2009,11,13,11,33,8.10
2009,11,13,11,34,8.00
2009,11,13,11,35,8.00
2009,11,13,11,36,8.00
2009,11,13,11,37,8.00
2009,11,13,11,38,8.00
2009,11,13,11,39,8.00
2009,11,13,11,40,8.10
2009,11,13,11,41,8.00
2009,11,13,11,42,8.10
2009,11,13,11,43,8.10
2009,11,13,11,44,8.10
2009,11,13,11,45,8.10
2009,11,13,11,46,8.10
2009,11,13,11,47,8.20
2009,11,13,11,48,8.10
2009,11,13,11,49,8.10
2009,11,13,11,50,8.10
2009,11,13,11,51,8.10
2009,11,13,11,52,8.10
2009,11,13,11,53,8.10
2009,11,13,11,54,8.10
2009,11,13,11,55,8.10
2009,11,13,11,56,8.10
2009,11,13,11,57,8.10
2009,11,13,11,58,8.10
2009,11,13,11,59,8.10
2009,11,13,12,00,8.10
2009,11,13,12,01,8.00
2009,11,13,12,02,8.00
2009,11,13,12,03,8.00
2009,11,13,12,04,8.00
2009,11,13,12,05,8.00
2009,11,13,12,06,8.00
2009,11,13,12,07,8.00
2009,11,13,12,08,8.00
2009,11,13,12,09,8.00
2009,11,13,12,10,7.90
2009,11,13,12,11,7.90
2009,11,13,12,12,7.90
2009,11,13,12,13,7.90
2009,11,13,12,14,7.80
2009,11,13,12,15,7.80
2009,11,13,12,16,7.80
2009,11,13,12,17,7.80
2009,11,13,12,18,7.80
2009,11,13,12,19,7.80
2009,11,13,12,20,7.80
2009,11,13,12,21,7.80
2009,11,13,12,22,7.70
2009,11,13,12,23,7.70
2009,11,13,12,24,7.60
2009,11,13,12,25,7.60
2009,11,13,12,26,7.60
2009,11,13,12,27,7.70
2009,11,13,12,28,7.70
2009,11,13,12,29,7.80
2009,11,13,12,30,7.80
2009,11,13,12,31,7.80
2009,11,13,12,32,7.80
2009,11,13,12,33,7.80
2009,11,13,12,34,7.80
2009,11,13,12,35,7.80
2009,11,13,12,36,7.90
2009,11,13,12,37,7.90
2009,11,13,12,38,7.90
2009,11,13,12,39,7.80
2009,11,13,12,40,7.80
2009,11,13,12,41,7.80
2009,11,13,12,42,7.80
2009,11,13,12,43,7.80
2009,11,13,12,44,7.80
2009,11,13,12,45,7.80
2009,11,13,12,46,7.80
2009,11,13,12,47,7.80
2009,11,13,12,48,7.80
2009,11,13,12,49,7.90
2009,11,13,12,50,7.90
2009,11,13,12,51,7.90
2009,11,13,12,52,7.90
2009,11,13,12,53,8.00
2009,11,13,12,54,8.00
2009,11,13,12,55,8.00
2009,11,13,12,56,8.10
2009,11,13,12,57,8.10
2009,11,13,12,58,8.10
2009,11,13,12,59,8.10
2009,11,13,13,00,8.20
2009,11,13,13,01,8.20
2009,11,13,13,02,8.20
2009,11,13,13,03,8.20
2009,11,13,13,04,8.10
2009,11,13,13,05,8.10
2009,11,13,13,06,8.10
2009,11,13,13,07,8.20
2009,11,13,13,08,8.20
2009,11,13,13,09,8.20
2009,11,13,13,10,8.10
2009,11,13,13,11,8.10
2009,11,13,13,12,8.10
2009,11,13,13,13,8.10
2009,11,13,13,14,8.10
2009,11,13,13,15,8.00
2009,11,13,13,16,8.00
2009,11,13,13,17,8.00
2009,11,13,13,18,8.00
2009,11,13,13,19,7.90
2009,11,13,13,20,7.90
2009,11,13,13,21,7.90
2009,11,13,13,22,7.80
2009,11,13,13,23,7.80
2009,11,13,13,24,7.80
2009,11,13,13,25,7.80
2009,11,13,13,26,7.80
2009,11,13,13,27,7.80
2009,11,13,13,28,7.80
2009,11,13,13,29,7.80
2009,11,13,13,30,7.80
2009,11,13,13,31,7.80
2009,11,13,13,32,7.80
2009,11,13,13,33,7.80
2009,11,13,13,34,7.90
2009,11,13,13,35,7.90
2009,11,13,13,36,7.90
2009,11,13,13,37,7.90
2009,11,13,13,38,7.90
2009,11,13,13,39,7.90
2009,11,13,13,40,8.00
2009,11,13,13,41,8.00
2009,11,13,13,42,8.10
2009,11,13,13,43,8.10
2009,11,13,13,44,8.10
2009,11,13,13,45,8.10
2009,11,13,13,46,8.10
2009,11,13,13,47,8.20
2009,11,13,13,48,8.20
2009,11,13,13,49,8.10
2009,11,13,13,50,8.10
2009,11,13,13,51,8.00
2009,11,13,13,52,7.90
2009,11,13,13,53,7.90
2009,11,13,13,54,7.80
2009,11,13,13,55,7.60
2009,11,13,13,56,7.50
2009,11,13,13,57,7.50
2009,11,13,13,58,7.40
2009,11,13,13,59,7.30
2009,11,13,14,00,7.30
2009,11,13,14,01,7.30
2009,11,13,14,02,7.30
2009,11,13,14,03,7.30
2009,11,13,14,04,7.40
2009,11,13,14,05,7.50
2009,11,13,14,06,7.60
2009,11,13,14,07,7.60
2009,11,13,14,08,7.60
2009,11,13,14,09,7.60
2009,11,13,14,10,7.60
2009,11,13,14,11,7.60
2009,11,13,14,12,7.60
2009,11,13,14,13,7.60
2009,11,13,14,14,7.60
2009,11,13,14,15,7.60
2009,11,13,14,16,7.60
2009,11,13,14,17,7.50
2009,11,13,14,18,7.50
2009,11,13,14,19,7.40
2009,11,13,14,20,7.40
2009,11,13,14,21,7.40
2009,11,13,14,22,7.40
2009,11,13,14,23,7.40
2009,11,13,14,24,7.40
2009,11,13,14,25,7.40
2009,11,13,14,26,7.30
2009,11,13,14,27,7.30
2009,11,13,14,28,7.30
2009,11,13,14,29,7.20
2009,11,13,14,30,7.20
2009,11,13,14,31,7.10
2009,11,13,14,32,7.10
2009,11,13,14,33,7.00
2009,11,13,14,34,7.00
2009,11,13,14,35,7.00
2009,11,13,14,36,7.00
2009,11,13,14,37,6.90
2009,11,13,14,38,6.90
2009,11,13,14,39,6.80
2009,11,13,14,40,6.80
2009,11,13,14,41,6.80
2009,11,13,14,42,6.80
2009,11,13,14,43,6.80
2009,11,13,14,44,6.70
2009,11,13,14,45,6.70
2009,11,13,14,46,6.80
2009,11,13,14,47,6.80
2009,11,13,14,48,6.80
2009,11,13,14,49,6.80
2009,11,13,14,50,6.80
2009,11,13,14,51,6.80
2009,11,13,14,52,6.80
2009,11,13,14,53,6.80
2009,11,13,14,54,6.80
2009,11,13,14,55,6.80
2009,11,13,14,56,6.80
2009,11,13,14,57,6.70
2009,11,13,14,58,6.70
2009,11,13,14,59,6.70
2009,11,13,15,00,6.70
2009,11,13,15,01,6.70
2009,11,13,15,02,6.80
2009,11,13,15,03,6.80
2009,11,13,15,04,6.80
2009,11,13,15,05,6.80
2009,11,13,15,06,6.90
2009,11,13,15,07,6.90
2009,11,13,15,08,6.90
2009,11,13,15,09,6.80
2009,11,13,15,10,6.80
2009,11,13,15,11,6.80
2009,11,13,15,12,6.80
2009,11,13,15,13,6.80
2009,11,13,15,14,6.70
2009,11,13,15,15,6.70
2009,11,13,15,16,6.70
2009,11,13,15,17,6.70
2009,11,13,15,18,6.70
2009,11,13,15,19,6.60
2009,11,13,15,20,6.60
2009,11,13,15,21,6.60
2009,11,13,15,22,6.60
2009,11,13,15,23,6.60
2009,11,13,15,24,6.60
2009,11,13,15,25,6.60
2009,11,13,15,26,6.60
2009,11,13,15,27,6.60
2009,11,13,15,28,6.60
2009,11,13,15,29,6.60
2009,11,13,15,30,6.60
2009,11,13,15,31,6.60
2009,11,13,15,32,6.60
2009,11,13,15,33,6.60
2009,11,13,15,34,6.60
2009,11,13,15,35,6.60
2009,11,13,15,36,6.60
2009,11,13,15,37,6.60
2009,11,13,15,38,6.60
2009,11,13,15,39,6.60
2009,11,13,15,40,6.60
2009,11,13,15,41,6.50
2009,11,13,15,42,6.40
2009,11,13,15,43,6.40
2009,11,13,15,44,6.40
2009,11,13,15,45,6.40
2009,11,13,15,46,6.40
2009,11,13,15,47,6.40
2009,11,13,15,48,6.40
2009,11,13,15,49,6.40
2009,11,13,15,50,6.40
2009,11,13,15,51,6.40
2009,11,13,15,52,6.40
2009,11,13,15,53,6.40
2009,11,13,15,54,6.40
2009,11,13,15,55,6.40
2009,11,13,15,56,6.40
2009,11,13,15,57,6.40
2009,11,13,15,58,6.40
2009,11,13,15,59,6.40
2009,11,13,16,00,6.40
2009,11,13,16,01,6.40
2009,11,13,16,02,6.40
2009,11,13,16,03,6.30
2009,11,13,16,04,6.30
2009,11,13,16,05,6.30
2009,11,13,16,06,6.30
2009,11,13,16,07,6.30
2009,11,13,16,08,6.30
2009,11,13,16,09,6.30
2009,11,13,16,10,6.30
2009,11,13,16,11,6.20
2009,11,13,16,12,6.20
2009,11,13,16,13,6.20
2009,11,13,16,14,6.20
2009,11,13,16,15,6.20
2009,11,13,16,16,6.20
2009,11,13,16,17,6.10
2009,11,13,16,18,6.10
2009,11,13,16,19,6.10
2009,11,13,16,20,6.10
2009,11,13,16,21,6.10
2009,11,13,16,22,6.10
2009,11,13,16,23,6.10
2009,11,13,16,24,6.00
2009,11,13,16,25,6.00
2009,11,13,16,26,6.00
2009,11,13,16,27,6.00
2009,11,13,16,28,6.00
2009,11,13,16,29,5.90
2009,11,13,16,30,5.90
2009,11,13,16,31,5.90
2009,11,13,16,32,5.90
2009,11,13,16,33,5.80
2009,11,13,16,34,5.80
2009,11,13,16,35,5.80
2009,11,13,16,36,5.80
2009,11,13,16,37,5.80
2009,11,13,16,38,5.70
2009,11,13,16,39,5.70
2009,11,13,16,40,5.70
2009,11,13,16,41,5.70
2009,11,13,16,42,5.70
2009,11,13,16,43,5.70
2009,11,13,16,44,5.60
2009,11,13,16,45,5.50
2009,11,13,16,46,5.50
2009,11,13,16,47,5.40
2009,11,13,16,48,5.40
2009,11,13,16,49,5.30
2009,11,13,16,50,5.30
2009,11,13,16,51,5.30
2009,11,13,16,52,5.30
2009,11,13,16,53,5.20
2009,11,13,16,54,5.10
2009,11,13,16,55,5.10
2009,11,13,16,56,5.10
2009,11,13,16,57,5.00
2009,11,13,16,58,4.90
2009,11,13,16,59,4.90
2009,11,13,17,00,4.90
2009,11,13,17,01,4.80
2009,11,13,17,02,4.80
2009,11,13,17,03,4.80
2009,11,13,17,04,4.80
2009,11,13,17,05,4.70
2009,11,13,17,06,4.70
2009,11,13,17,07,4.60
2009,11,13,17,08,4.60
2009,11,13,17,09,4.60
2009,11,13,17,10,4.60
2009,11,13,17,11,4.50
2009,11,13,17,12,4.40
2009,11,13,17,13,4.40
2009,11,13,17,14,4.30
2009,11,13,17,15,4.20
2009,11,13,17,16,4.20
2009,11,13,17,17,4.10
2009,11,13,17,18,4.10
2009,11,13,17,19,4.00
2009,11,13,17,20,4.00
2009,11,13,17,21,4.00
2009,11,13,17,22,3.90
2009,11,13,17,23,3.90
2009,11,13,17,24,3.80
2009,11,13,17,25,3.80
2009,11,13,17,26,3.80
2009,11,13,17,27,3.70
2009,11,13,17,28,3.70
2009,11,13,17,29,3.60
2009,11,13,17,30,3.60
2009,11,13,17,31,3.50
2009,11,13,17,32,3.50
2009,11,13,17,33,3.40
2009,11,13,17,34,3.30
2009,11,13,17,35,3.30
2009,11,13,17,36,3.30
2009,11,13,17,37,3.20
2009,11,13,17,38,3.20
2009,11,13,17,39,3.20
2009,11,13,17,40,3.10
2009,11,13,17,41,3.10
2009,11,13,17,42,3.10
2009,11,13,17,43,3.10
2009,11,13,17,44,3.10
2009,11,13,17,45,3.10
2009,11,13,17,46,3.10
2009,11,13,17,47,3.10
2009,11,13,17,48,3.10
2009,11,13,17,49,3.10
2009,11,13,17,50,3.10
2009,11,13,17,51,3.00
2009,11,13,17,52,2.90
2009,11,13,17,53,2.90
2009,11,13,17,54,2.90
2009,11,13,17,55,2.90
2009,11,13,17,56,2.90
2009,11,13,17,57,2.80
2009,11,13,17,58,2.80
2009,11,13,17,59,2.70
2009,11,13,18,00,2.70
2009,11,13,18,01,2.70
2009,11,13,18,02,2.70
2009,11,13,18,03,2.60
2009,11,13,18,04,2.60
2009,11,13,18,05,2.50
2009,11,13,18,06,2.50